Location: Unspecified
(0.0000°N, 0.0000°E)
Time: 20:27:09
(UTC+00:00)

Transit 4A - Pass Details

Date: 31 May 2022
Orbit: 864 x 980 km, 66.8° (Epoch: 26 June)

Event Time Altitude Azimuth Distance (km) Brightness Sun altitude
Rises 00:41:11 0° 191° (S) 3,571 - -65.7°
Reaches altitude 10° 00:43:44 10° 187° (S) 2,643 - -65.4°
Maximum altitude 00:49:47 57° 109° (ESE) 1,114 - -64.7°
Drops below altitude 10° 00:55:57 10° 32° (NNE) 2,701 - -63.9°
Sets 00:58:34 0° 28° (NNE) 3,655 - -63.6°
